User: anonymous   Login
Location: Parc des �les de St-Timoth�e
(45.2924°N, 74.0481°W)
Time: 08:07:43
(UTC-04:00)
Language:

Cosmos 2173 Rocket - Orbit

View from above orbital plane
View from above orbital plane
View from above satellite
View from above satellite

Ground track
Ground track

The orbit data is extracted from the following two-line orbital elements,

1 21797U 91081B   17232.95333056 +.00000081 +00000-0 +65762-4 0  9993
2 21797 082.9553 014.0888 0036621 266.8516 215.9565 13.77407785293041
Epoch (UTC): 20 August 2017 22:52:47
Eccentricity: 0.0036621
inclination: 82.9553°
perigee height: 946 km
apogee height: 1000 km
right ascension of ascending node: 14.0888°
argument of perigee: 266.8516°
revolutions per day: 13.77407785
mean anomaly at epoch: 215.9565°
orbit number at epoch: 29304

The dashed part of the orbit path shows where the satellite is in the earth's shadow,  

DLR